Simultaneous Nadir Overpasses (SNOs) Predictions

Prediction of SNOs between GOES-16 and NOAA-19 Satellite Orbit:

Table of predicted SNOs for the next 14.0 days since TLE Epoch: 1/23/2022
Index Date Time (GOES-16) GOES-16 Lat,Lon NOAA-19 Lat,Lon Distance(km) Time Diff (sec)
1 01/23/2022 12:45:14 -0.03, -75.21 0.88, -79.18 453.25 80
2 01/24/2022 12:33:27 -0.03, -75.21 0.21, -76.30 124.10 80
3 01/25/2022 12:18:59 -0.03, -75.22 -0.46, -73.42 205.08 80
4 01/28/2022 00:42:23 0.03, -75.21 -0.69, -78.33 355.91 80
5 01/29/2022 00:30:36 0.03, -75.22 -0.03, -75.45 26.69 80
6 01/30/2022 00:16:08 0.03, -75.23 0.63, -72.57 302.65 80
7 02/01/2022 12:39:30 -0.01, -75.28 0.52, -77.47 250.52 80
8 02/02/2022 12:25:03 -0.00, -75.29 -0.16, -74.59 79.86 80
9 02/03/2022 12:13:15 0.00, -75.31 -0.84, -71.72 410.43 80
10 02/05/2022 00:48:27 -0.01, -75.32 -1.00, -79.50 478.36 80
11 02/06/2022 00:36:41 -0.01, -75.34 -0.28, -76.64 147.55 80
